Location: Newark
(7.0858°N, 171.3717°E)
Time: 20:38:15
(UTC+00:00)

Tiros 1 - Pass Details

Date: 26 November 2020
Orbit: 630 x 663 km, 48.4° (Epoch: 18 January)

Event Time Altitude Azimuth Distance (km) Brightness Sun altitude
Rises 02:19:37 0° 221° (SW) 2,976 11.2 49.7°
Reaches altitude 10° 02:21:58 10° 223° (SW) 2,067 10.7 49.3°
Maximum altitude 02:26:44 79° 309° (NW) 674 8.2 48.4°
Drops below altitude 10° 02:31:32 10° 36° (NE) 2,069 9.5 47.5°
Sets 02:33:52 0° 37° (NE) 2,979 10.2 47.1°
